Weather History for KAPN - September, 2013

Change the Weather History Date:

Thursday, September 5, 2013

  Actual Average Record
Temperature  
Mean Temperature 54 °F 61 °F  
Max Temperature 65 °F 73 °F 90 °F (1922)
Min Temperature 43 °F 50 °F 31 °F (1963)
Degree Days  
Heating Degree Days 11 5  
Month to date heating degree days 25 22  
Since 1 July heating degree days 136 137  
Cooling Degree Days 0 1  
Month to date cooling degree days 0 7  
Year to date cooling degree days 307 273  
Growing Degree Days 4 (Base 50)    
Moisture  
Dew Point 40 °F    
Average Humidity 61    
Maximum Humidity 92    
Minimum Humidity 30    
Precipitation  
Precipitation 0.00 in 0.10 in 1.17 in (2008)
Month to date precipitation 0.02 0.50  
Year to date precipitation 22.09 19.28  
Sea Level Pressure  
Sea Level Pressure 30.26 in    
Wind  
Wind Speed 4 mph (NW)    
Max Wind Speed 13 mph    
Max Gust Speed 18 mph    
Visibility 10 miles    
Events      
T = Trace of Precipitation, MM = Missing Value Source: NWS Daily Summary

Daily Weather History Graph

Daily Weather History Graph

Search for Another Location

Airport or City:

Trip Planner

Search our weather history database for the weather conditions in past years. The results will help you decide how hot, cold, wet, or windy it might be!

Date:

Astronomy

Sep. 05, 2013 Rise Set
Actual Time 7:01 AM EDT 8:03 PM EDT
Civil Twilight 6:31 AM EDT 8:33 PM EDT
Nautical Twilight 5:55 AM EDT 9:09 PM EDT
Astronomical Twilight 5:17 AM EDT 9:47 PM EDT
Moon 7:14 AM EDT (9/5) 7:50 PM EDT (9/5)
Length of Visible Light 14h 02m
Length of Day
13h 02m
New Moon, 0% of the Moon is Illuminated
Sep 5
New Moon
Sep 12
First Quarter
Sep 19
Full
Sep 26
Last Quarter
Oct 4
New

Hourly Weather History & Observations

Time (EDT) Temp. Windchill Dew Point Humidity Pressure Visibility Wind Dir Wind Speed Gust Speed Precip Events Conditions
12:54 AM 48.0 °F - 41.0 °F 77% 30.14 in 10.0 mi West 4.6 mph - N/A   Clear
1:54 AM 46.9 °F - 41.0 °F 80% 30.16 in 10.0 mi West 4.6 mph - N/A   Clear
2:54 AM 45.0 °F 43.5 °F 41.0 °F 86% 30.17 in 10.0 mi WNW 3.5 mph - N/A   Clear
3:54 AM 46.0 °F 44.8 °F 42.1 °F 86% 30.18 in 10.0 mi NW 3.5 mph - N/A   Scattered Clouds
4:54 AM 45.0 °F 43.5 °F 42.1 °F 90% 30.19 in 10.0 mi WNW 3.5 mph - N/A   Clear
5:54 AM 44.1 °F - 43.0 °F 96% 30.22 in 10.0 mi Calm Calm - N/A   Clear
6:54 AM 44.1 °F - 42.1 °F 93% 30.25 in 10.0 mi Calm Calm - N/A   Clear
7:54 AM 46.0 °F 44.8 °F 43.0 °F 89% 30.28 in 10.0 mi WNW 3.5 mph - N/A   Partly Cloudy
8:54 AM 51.1 °F - 45.0 °F 80% 30.30 in 10.0 mi Calm Calm - N/A   Clear
9:54 AM 55.9 °F - 39.0 °F 53% 30.31 in 10.0 mi NNW 10.4 mph - N/A   Clear
10:54 AM 59.0 °F - 37.0 °F 44% 30.32 in 10.0 mi North 11.5 mph - N/A   Clear
1:54 PM 63.0 °F - 36.0 °F 37% 30.30 in 10.0 mi NNW 10.4 mph 16.1 mph N/A   Clear
2:54 PM 64.0 °F - 32.0 °F 30% 30.29 in 10.0 mi North 11.5 mph - N/A   Clear
3:54 PM 63.0 °F - 33.1 °F 33% 30.29 in 10.0 mi Calm Calm - N/A   Clear
4:54 PM 64.0 °F - 35.1 °F 34% 30.28 in 10.0 mi NW 8.1 mph - N/A   Clear
5:54 PM 64.0 °F - 36.0 °F 35% 30.27 in 10.0 mi NNW 6.9 mph - N/A   Clear
6:54 PM 62.1 °F - 37.0 °F 39% 30.27 in 10.0 mi North 5.8 mph - N/A   Clear
7:54 PM 55.0 °F - 42.1 °F 62% 30.27 in 10.0 mi South 5.8 mph - N/A   Clear
8:54 PM 51.1 °F - 43.0 °F 74% 30.28 in 10.0 mi Calm Calm - N/A   Clear
9:54 PM 46.9 °F - 42.1 °F 83% 30.28 in 10.0 mi Calm Calm - N/A   Clear
10:54 PM 48.0 °F - 42.1 °F 80% 30.28 in 10.0 mi SW 3.5 mph - N/A   Clear
11:54 PM 46.9 °F - 41.0 °F 80% 30.26 in 10.0 mi SW 4.6 mph - N/A   Clear